Location: Clanezzo
(45.7500°N, 9.6000°E)
Time: 14:03:46
(UTC+00:00)

Ariane Rocket - Pass Details

Date: 12 May 2021
Orbit: 761 x 769 km, 98.7° (Epoch: 19 June)

Event Time Altitude Azimuth Distance (km) Brightness Sun altitude
Exits shadow 20:13:23 - 190° (S) 3,045 5.8 -13.5°
Reaches altitude 10° 20:15:27 10° 199° (SSW) 2,289 5.2 -13.7°
Maximum altitude 20:20:00 34° 263° (W) 1,248 4.5 -14.3°
Drops below altitude 10° 20:24:36 10° 328° (NNW) 2,309 6.8 -14.8°
Sets 20:27:08 0° 338° (NNW) 3,241 7.7 -15.1°
